Weather History for Muskegon, MI

Change the Weather History Date:

Tuesday, January 14, 2014

  Actual Average Record
Temperature  
Mean Temperature 29 °F 25 °F  
Max Temperature 35 °F 31 °F 53 °F (1952)
Min Temperature 23 °F 20 °F -8 °F (1914)
Degree Days  
Heating Degree Days 36 40  
Month to date heating degree days 601 547  
Since 1 July heating degree days 3065 2993  
Cooling Degree Days 0 0  
Month to date cooling degree days 0 0  
Year to date cooling degree days 0 0  
Moisture  
Dew Point 25 °F    
Average Humidity 75    
Maximum Humidity 89    
Minimum Humidity 61    
Precipitation  
Precipitation 0.02 in 0.06 in 1.18 in (1995)
Month to date precipitation 1.90 0.98  
Year to date precipitation 1.90 0.98  
Snow  
Snow 0.30 in 0.90 in 16.30 in (2012)
Month to date snowfall 14.5 12.6  
Since 1 July snowfall 62.6 47.7  
Snow Depth 7.00 in    
Sea Level Pressure  
Sea Level Pressure 29.63 in    
Wind  
Wind Speed 13 mph (SSW)    
Max Wind Speed 26 mph    
Max Gust Speed 36 mph    
Visibility 6 miles    
Events Rain , Snow    
T = Trace of Precipitation, MM = Missing Value Source: NWS Daily Summary

Daily Weather History Graph

Daily Weather History Graph

Search for Another Location

Airport:

Trip Planner

Search our weather history database for the weather conditions in past years. The results will help you decide how hot, cold, wet, or windy it might be!

Date:

Astronomy

Jan. 14, 2014 Rise Set
Actual Time 8:14 AM EST 5:34 PM EST
Civil Twilight 7:42 AM EST 6:05 PM EST
Nautical Twilight 7:07 AM EST 6:40 PM EST
Astronomical Twilight 6:33 AM EST 7:15 PM EST
Moon 4:39 PM EST (1/14) 6:47 AM EST (1/14)
Length of Visible Light 10h 22m
Length of Day
9h 19m
Waxing Gibbous, 98% of the Moon is Illuminated
Jan 14
Waxing Gibbous
Jan 15
Full
Jan 24
Last Quarter
Jan 30
New
Feb 6
First Quarter

Hourly Weather History & Observations

Time (EST) Temp. Windchill Dew Point Humidity Pressure Visibility Wind Dir Wind Speed Gust Speed Precip Events Conditions
12:16 AM 34.0 °F 25.0 °F 25.0 °F 70% 29.70 in 10.0 mi West 12.7 mph - N/A   Scattered Clouds
12:55 AM 33.1 °F 24.4 °F 24.1 °F 70% 29.72 in 10.0 mi WNW 11.5 mph - N/A   Partly Cloudy
1:44 AM 33.1 °F 26.9 °F 23.0 °F 66% 29.71 in 10.0 mi WNW 6.9 mph - N/A   Mostly Cloudy
1:52 AM 32.0 °F 24.2 °F 21.2 °F 64% 29.71 in 10.0 mi WNW 9.2 mph - N/A   Scattered Clouds
1:55 AM 32.0 °F 24.8 °F 21.9 °F 66% 29.73 in 10.0 mi WNW 8.1 mph - N/A   Scattered Clouds
2:55 AM 30.0 °F 24.1 °F 21.9 °F 72% 29.73 in 10.0 mi West 5.8 mph - N/A   Clear
3:55 AM 30.0 °F 24.1 °F 21.0 °F 69% 29.75 in 10.0 mi West 5.8 mph - N/A   Clear
4:55 AM 27.0 °F - 19.9 °F 75% 29.73 in 10.0 mi Calm Calm - N/A   Scattered Clouds
5:55 AM 24.1 °F - 19.9 °F 84% 29.73 in 10.0 mi Calm Calm - N/A   Partly Cloudy
6:55 AM 24.1 °F 17.0 °F 19.9 °F 84% 29.72 in 10.0 mi SE 5.8 mph - N/A   Partly Cloudy
7:55 AM 23.0 °F 14.7 °F 19.9 °F 88% 29.71 in 10.0 mi SE 6.9 mph - N/A   Scattered Clouds
8:55 AM 26.1 °F 16.8 °F 21.9 °F 84% 29.71 in 7.0 mi SE 9.2 mph - N/A   Mostly Cloudy
9:55 AM 28.9 °F 20.4 °F 23.0 °F 78% 29.71 in 8.0 mi SE 9.2 mph - N/A   Overcast
10:55 AM 30.0 °F 19.1 °F 24.1 °F 79% 29.70 in 9.0 mi SE 15.0 mph - N/A   Overcast
11:55 AM 33.1 °F 23.4 °F 21.0 °F 61% 29.65 in 10.0 mi SE 13.8 mph - N/A   Overcast
12:55 PM 34.0 °F 23.4 °F 21.0 °F 59% 29.62 in 6.0 mi SSE 17.3 mph 28.8 mph 0.00 in Snow Light Snow
1:25 PM 33.1 °F 23.0 °F 23.0 °F 66% 29.59 in 2.5 mi SSE 15.0 mph 24.2 mph 0.00 in Snow Light Snow
1:31 PM 33.1 °F 22.2 °F 23.0 °F 66% 29.59 in 1.8 mi SSE 17.3 mph 21.9 mph 0.00 in Snow Light Snow
1:36 PM 33.1 °F 23.4 °F 24.1 °F 70% 29.58 in 2.0 mi South 13.8 mph 23.0 mph 0.00 in Snow Light Snow
1:44 PM 33.1 °F 23.0 °F 24.1 °F 70% 29.58 in 2.0 mi SSE 15.0 mph 23.0 mph 0.00 in Snow Light Snow
1:55 PM 33.1 °F 23.9 °F 25.0 °F 72% 29.60 in 2.0 mi SSE 12.7 mph - 0.00 in Snow Light Snow
2:11 PM 33.1 °F 23.9 °F 26.1 °F 75% 29.58 in 1.8 mi South 12.7 mph - 0.01 in Snow Light Snow
2:18 PM 34.0 °F 24.6 °F 26.1 °F 73% 29.58 in 2.0 mi South 13.8 mph - 0.01 in Snow Light Snow
2:55 PM 33.1 °F 21.9 °F 28.0 °F 82% 29.60 in 2.0 mi South 18.4 mph 26.5 mph 0.02 in Snow Light Snow
3:01 PM 33.1 °F 21.9 °F 28.0 °F 82% 29.58 in 1.5 mi South 18.4 mph 28.8 mph 0.00 in Snow Light Snow
3:17 PM 33.1 °F 21.9 °F 28.9 °F 85% 29.57 in 2.0 mi South 18.4 mph 26.5 mph 0.01 in Snow Light Snow
3:30 PM 34.0 °F 23.4 °F 28.9 °F 82% 29.57 in 2.0 mi South 17.3 mph 25.3 mph 0.01 in Snow Light Snow
3:35 PM 34.0 °F 24.6 °F 30.0 °F 85% 29.57 in 1.0 mi South 13.8 mph 25.3 mph 0.02 in Snow Light Snow
3:46 PM 34.0 °F 23.4 °F 30.0 °F 85% 29.57 in 0.8 mi South 17.3 mph 25.3 mph 0.03 in Snow Light Snow
3:53 PM 33.8 °F 22.8 °F 30.2 °F 87% 29.57 in 1.0 mi South 18.4 mph - 0.04 in Snow Light Snow
3:55 PM 34.0 °F 24.2 °F 30.0 °F 85% 29.59 in 1.0 mi South 15.0 mph - 0.04 in Snow Light Snow
4:06 PM 34.0 °F 23.8 °F 30.9 °F 89% 29.57 in 2.0 mi South 16.1 mph - 0.00 in Snow Light Snow
4:10 PM 34.0 °F 24.2 °F 30.9 °F 89% 29.57 in 1.5 mi South 15.0 mph - 0.00 in Snow Light Snow
4:50 PM 33.8 °F 23.5 °F 30.2 °F 87% 29.58 in 1.5 mi WSW 16.1 mph 33.4 mph 0.03 in Rain Light Rain
4:55 PM 34.0 °F 23.8 °F 28.9 °F 82% 29.60 in 4.0 mi WSW 16.1 mph 25.3 mph 0.03 in Rain Light Rain
4:57 PM 34.0 °F 23.8 °F 28.9 °F 82% 29.58 in 6.0 mi WSW 16.1 mph 25.3 mph 0.00 in Rain Light Rain
5:55 PM 33.1 °F 20.1 °F 25.0 °F 72% 29.63 in 6.0 mi SW 25.3 mph 35.7 mph 0.00 in   Haze
6:55 PM 30.9 °F 17.8 °F 23.0 °F 72% 29.64 in 10.0 mi SW 23.0 mph 29.9 mph 0.00 in Snow Light Snow
7:55 PM 30.0 °F 16.6 °F 21.9 °F 72% 29.65 in 10.0 mi SW 23.0 mph 29.9 mph 0.00 in Snow Light Snow
8:55 PM 30.0 °F 17.2 °F 21.9 °F 72% 29.64 in 6.0 mi SW 20.7 mph - 0.00 in Snow Light Snow
9:25 PM 28.9 °F 16.1 °F 24.1 °F 82% 29.61 in 2.0 mi SSW 19.6 mph - 0.00 in Snow Light Snow
9:31 PM 28.9 °F 16.1 °F 24.1 °F 82% 29.61 in 1.8 mi SSW 19.6 mph 27.6 mph 0.00 in Snow Light Snow
9:33 PM 28.9 °F 16.5 °F 24.1 °F 82% 29.61 in 2.0 mi SSW 18.4 mph - 0.00 in Snow Light Snow
9:55 PM 30.0 °F 18.3 °F 24.1 °F 79% 29.62 in 2.0 mi SSW 17.3 mph 25.3 mph 0.00 in Snow Light Snow
10:05 PM 30.0 °F 16.9 °F 24.1 °F 79% 29.59 in 1.5 mi SSW 21.9 mph 27.6 mph 0.00 in Snow Light Snow
10:17 PM 30.0 °F 17.5 °F 24.1 °F 79% 29.59 in 3.0 mi SW 19.6 mph 26.5 mph 0.00 in Snow Light Snow
10:55 PM 30.0 °F 19.5 °F 24.1 °F 79% 29.57 in 9.0 mi South 13.8 mph - 0.00 in   Mostly Cloudy
11:01 PM 30.0 °F 21.1 °F 24.1 °F 79% 29.54 in 3.0 mi South 10.4 mph - 0.00 in Snow Light Snow
11:13 PM 30.0 °F 19.5 °F 26.1 °F 85% 29.53 in 9.0 mi SSW 13.8 mph - 0.00 in   Mostly Cloudy
11:35 PM 30.9 °F 24.3 °F 27.0 °F 85% 29.53 in 10.0 mi WSW 6.9 mph - 0.00 in   Overcast
11:48 PM 32.0 °F 22.5 °F 27.0 °F 82% 29.53 in 10.0 mi WNW 12.7 mph 20.7 mph 0.00 in   Overcast
11:55 PM 32.0 °F 22.1 °F 26.1 °F 79% 29.56 in 10.0 mi WNW 13.8 mph - 0.00 in   Overcast